Stations météo

réclame
Mon MeteoGroup
Alghero, Italie (16520): Température de l'air & dewpoint: 17.10.2018 07:00:00 - 23.10.2018 07:00:00 (CEST)Alghero, Italie (16520): Vitesse du vent: 17.10.2018 07:00:00 - 23.10.2018 07:00:00 (CEST)Alghero, Italie (16520): Direction du vent: 17.10.2018 07:00:00 - 23.10.2018 07:00:00 (CEST)Alghero, Italie (16520): reduced air pressure: 17.10.2018 07:00:00 - 23.10.2018 07:00:00 (CEST)Alghero, Italie (16520): visibility: 17.10.2018 07:00:00 - 23.10.2018 07:00:00 (CEST)Alghero, Italie (16520): Quantités de précipitations: 17.10.2018 07:00:00 - 23.10.2018 07:00:00 (CEST)
Date & Time tt [°C] td [°C] ff [km/h] ff [knt] dd ppp [hPa] vv [km] rr [mm]
23.10.2018 07:00:00 10,0 7,0 8 4 NNW - 10 -
23.10.2018 06:00:00 9,0 7,0 2 1 - - 10 -
23.10.2018 05:00:00 9,9 6,3 4 2 - 1019,7 10 0,0
23.10.2018 04:00:00 9,0 7,0 8 4 WNW - 10 -
23.10.2018 03:00:00 9,0 7,0 4 2 - - 10 -
23.10.2018 02:00:00 10,8 7,2 4 2 - 1019,5 10 -
23.10.2018 01:00:00 10,0 7,0 5 3 NW - 10 -
23.10.2018 00:00:00 10,0 7,0 4 2 - - 10 -
22.10.2018 23:00:00 10,6 7,4 2 1 - 1019,2 10 0,0
22.10.2018 22:00:00 11,0 8,0 4 2 - - 10 -
22.10.2018 21:00:00 14,0 8,0 5 3 NNE - 10 -
22.10.2018 20:00:00 15,9 7,5 9 5 N 1017,8 10 -
22.10.2018 19:00:00 17,0 8,0 11 6 NE - 10 -
22.10.2018 18:00:00 19,0 7,0 22 12 NE - 10 -
22.10.2018 17:00:00 19,7 4,8 18 10 NNE 1016,2 10 0,0
22.10.2018 16:00:00 20,0 5,0 21 11 NNE - 10 -
22.10.2018 15:00:00 21,0 5,0 21 11 NE - 10 -
22.10.2018 14:00:00 20,8 4,6 21 11 NE 1016,2 10 -
22.10.2018 13:00:00 20,0 6,0 18 10 ENE - 10 -
22.10.2018 12:00:00 19,0 7,0 22 12 ENE - 10 -
22.10.2018 11:00:00 18,5 6,6 18 10 E 1017,0 10 0,0
22.10.2018 10:00:00 17,0 8,0 13 7 ENE - 10 -
22.10.2018 09:00:00 15,0 9,0 11 6 ENE - 10 -
22.10.2018 08:00:00 14,6 9,0 11 6 NE 1016,0 10 -
22.10.2018 07:00:00 14,0 11,0 11 6 NE - 10 -
22.10.2018 06:00:00 16,0 12,0 9 5 ENE - 10 -
22.10.2018 05:00:00 17,1 13,8 8 4 E 1015,8 10 0,0
22.10.2018 04:00:00 17,0 15,0 13 7 NE - 9 -
22.10.2018 03:00:00 16,0 15,0 2 1 SE - 9 -
22.10.2018 02:00:00 15,8 15,3 4 2 NNE 1016,2 9 -
22.10.2018 01:00:00 16,0 15,0 2 1 - - 10 -
22.10.2018 00:00:00 16,0 15,0 5 3 NNE - 10 -
21.10.2018 23:00:00 16,9 15,8 4 2 - 1016,4 10 0,0
21.10.2018 22:00:00 17,0 16,0 5 3 ESE - 10 -
21.10.2018 21:00:00 19,0 17,0 4 2 SW - 10 -
21.10.2018 20:00:00 18,1 16,3 5 3 WSW 1015,9 10 -
21.10.2018 19:00:00 20,0 16,0 4 2 - - 10 -
21.10.2018 18:00:00 22,0 17,0 9 5 WNW - 10 -
21.10.2018 17:00:00 22,4 17,1 13 7 W 1016,5 10 0,0
21.10.2018 16:00:00 23,0 17,0 15 8 W - 10 -
21.10.2018 15:00:00 24,0 18,0 13 7 WNW - 10 -
21.10.2018 14:00:00 23,4 17,2 13 7 W 1018,3 10 -
21.10.2018 13:00:00 24,0 17,0 11 6 W - 10 -
21.10.2018 12:00:00 - - - - - - - -
21.10.2018 11:00:00 21,2 17,5 2 1 - 1019,8 10 0,0
21.10.2018 10:00:00 17,0 16,0 4 2 - - 10 -
21.10.2018 09:00:00 16,0 15,0 4 2 - - 7 -
21.10.2018 08:00:00 15,9 15,6 2 1 - 1019,9 - -
21.10.2018 07:00:00 15,0 14,0 4 2 N - 0,8 -
21.10.2018 06:00:00 15,0 15,0 4 2 - - 0,7 -
21.10.2018 05:00:00 15,3 14,9 5 3 NE 1020,3 0,6 0,0
21.10.2018 04:00:00 - - - - - - - -
21.10.2018 03:00:00 17,0 16,0 5 3 NNE - 10 -
21.10.2018 02:00:00 17,3 16,1 8 4 N 1020,9 10 -
21.10.2018 01:00:00 18,0 17,0 4 2 - - 10 -
21.10.2018 00:00:00 18,0 17,0 8 4 N - 10 -
20.10.2018 23:00:00 18,3 17,5 5 3 NNE 1021,7 10 0,0
20.10.2018 22:00:00 18,0 17,0 2 1 - - 10 -
20.10.2018 21:00:00 19,0 17,0 5 3 ENE - 10 -
20.10.2018 20:00:00 20,2 16,7 4 2 - 1021,4 10 -
20.10.2018 19:00:00 22,0 16,0 8 4 N - 10 -
20.10.2018 18:00:00 24,0 16,0 11 6 N - 10 -
20.10.2018 17:00:00 24,6 16,3 15 8 NNE 1020,4 10 0,0
20.10.2018 16:00:00 26,0 16,0 16 9 NNE - 10 -
20.10.2018 15:00:00 25,0 17,0 13 7 NNE - 10 -
20.10.2018 14:00:00 25,6 16,6 11 6 N 1021,0 10 -
20.10.2018 13:00:00 24,0 18,0 5 3 NW - 10 -
20.10.2018 12:00:00 23,0 19,0 4 2 - - 10 -
20.10.2018 11:00:00 22,0 18,0 5 3 NE - 10 -
20.10.2018 10:00:00 20,0 17,0 5 3 N - 10 -
20.10.2018 09:00:00 17,0 16,0 5 3 N - 10 -
20.10.2018 08:00:00 15,6 14,9 5 3 N 1019,7 10 -
20.10.2018 07:00:00 16,0 15,0 4 2 NNE - 10 -
20.10.2018 06:00:00 16,0 15,0 5 3 NNE - 10 -
20.10.2018 05:00:00 15,5 15,0 5 3 NNE 1019,0 10 0,0
20.10.2018 04:00:00 17,0 16,0 4 2 - - 10 -
20.10.2018 03:00:00 - - - - - - - -
20.10.2018 02:00:00 17,4 16,7 2 1 - 1019,0 10 -
20.10.2018 01:00:00 19,0 17,0 2 1 - - 10 -
20.10.2018 00:00:00 19,0 17,0 2 1 - - 10 -
19.10.2018 23:00:00 19,6 17,8 4 2 - 1018,5 10 0,0
19.10.2018 22:00:00 20,0 18,0 2 1 - - 10 -
19.10.2018 21:00:00 20,0 18,0 4 2 ESE - 10 -
19.10.2018 20:00:00 21,5 17,4 5 3 ESE 1017,1 10 -
19.10.2018 19:00:00 23,0 18,0 8 4 WNW - 10 -
19.10.2018 18:00:00 24,0 18,0 9 5 W - 10 -
19.10.2018 17:00:00 25,5 18,5 11 6 WNW 1015,0 10 0,0
19.10.2018 16:00:00 25,0 19,0 13 7 WNW - 10 -
19.10.2018 15:00:00 28,0 17,0 11 6 SSW - 10 -
19.10.2018 14:00:00 27,8 16,7 9 5 SSE 1014,2 10 -
19.10.2018 13:00:00 27,0 17,0 16 9 E - 10 -
19.10.2018 12:00:00 26,0 18,0 24 13 ENE - 10 -
19.10.2018 11:00:00 23,7 17,9 15 8 NE 1014,6 10 0,0
19.10.2018 10:00:00 22,0 17,0 13 7 NE - 10 -
19.10.2018 09:00:00 20,0 17,0 11 6 N - 10 -
19.10.2018 08:00:00 19,3 16,4 11 6 NE 1013,1 10 -
19.10.2018 07:00:00 20,0 17,0 11 6 N - 10 -
19.10.2018 06:00:00 21,0 16,0 11 6 NE - 10 -
19.10.2018 05:00:00 20,4 16,0 8 4 - 1011,9 10 0,0
19.10.2018 04:00:00 21,0 16,0 11 6 ENE - 10 -
19.10.2018 03:00:00 21,0 17,0 13 7 E - 10 -
19.10.2018 02:00:00 21,3 17,2 15 8 ENE 1011,9 10 -
19.10.2018 01:00:00 21,0 17,0 15 8 NE - 10 -
19.10.2018 00:00:00 21,0 17,0 18 10 ENE - 10 -
18.10.2018 23:00:00 21,2 17,4 16 9 ENE 1011,7 10 0,0
18.10.2018 22:00:00 21,0 17,0 11 6 NE - 10 -
18.10.2018 21:00:00 22,0 17,0 8 4 E - 10 -
18.10.2018 20:00:00 22,2 17,1 13 7 E 1009,8 10 -
18.10.2018 19:00:00 23,0 17,0 24 13 ENE - 10 -
18.10.2018 18:00:00 24,0 17,0 22 12 ENE - 10 -
18.10.2018 17:00:00 24,6 17,1 22 12 E 1008,2 10 0,0
18.10.2018 16:00:00 25,0 16,0 29 16 E - 10 -
18.10.2018 15:00:00 25,0 17,0 29 16 E - 10 -
18.10.2018 14:00:00 25,0 17,0 35 19 E - 10 -
18.10.2018 13:00:00 25,0 17,0 34 18 ENE - 10 -
18.10.2018 12:00:00 25,0 18,0 22 12 E - 10 -
18.10.2018 11:00:00 22,6 17,8 16 9 ENE 1009,2 10 0,0
18.10.2018 10:00:00 20,0 18,0 18 10 NE - 10 -
18.10.2018 09:00:00 20,0 17,0 21 11 NE - 10 -
18.10.2018 08:00:00 19,1 16,9 11 6 NNE 1009,5 10 -
18.10.2018 07:00:00 20,0 17,0 13 7 NE - 10 -
18.10.2018 06:00:00 20,0 18,0 5 3 N - 10 -
18.10.2018 05:00:00 19,4 17,8 8 4 NE 1009,7 10 0,0
18.10.2018 04:00:00 20,0 18,0 15 8 NE - 10 -
18.10.2018 03:00:00 19,0 17,0 11 6 NNE - 10 -
18.10.2018 02:00:00 19,2 16,8 8 4 NNE 1011,0 10 -
18.10.2018 01:00:00 19,0 17,0 8 4 N - 10 -
18.10.2018 00:00:00 19,0 16,0 11 6 N - 10 -
17.10.2018 23:00:00 18,6 16,5 9 5 NNE 1011,9 10 0,0
17.10.2018 22:00:00 18,0 17,0 4 2 - - 10 -
17.10.2018 21:00:00 18,0 18,0 8 4 ENE - 10 -
17.10.2018 20:00:00 18,6 17,9 8 4 NNE 1011,6 10 -
17.10.2018 19:00:00 20,0 18,0 5 3 N - 10 -
17.10.2018 18:00:00 20,0 18,0 11 6 E - 10 -
17.10.2018 17:00:00 24,3 17,4 8 4 W 1011,4 10 0,0
17.10.2018 16:00:00 25,0 16,0 4 2 - - 10 -
17.10.2018 15:00:00 24,0 17,0 5 3 SSW - 10 -
17.10.2018 14:00:00 23,6 16,4 9 5 S 1012,5 10 -
17.10.2018 13:00:00 24,0 18,0 4 2 - - 10 -
17.10.2018 12:00:00 22,0 18,0 8 4 NNE - 10 -
17.10.2018 11:00:00 20,9 17,7 11 6 NE 1013,4 10 0,0
17.10.2018 10:00:00 19,0 18,0 9 5 NE - 10 -
17.10.2018 09:00:00 18,0 17,0 8 4 NNE - 10 -
17.10.2018 08:00:00 17,9 16,7 9 5 NNE 1013,3 10 -
17.10.2018 07:00:00 18,0 17,0 5 3 N - 10 -

tt = Température de l'air
td = dewpoint
ff = Vitesse du vent
dd = Direction du vent
ppp = reduced air pressure
vv = visibility
rr = Quantités de précipitations

stations d'obs. à proximité